Time,TemperatureF,DewpointF,PressureIn,WindDirection,WindDirectionDegrees,WindSpeedMPH,WindSpeedGustMPH,Humidity,HourlyPrecipIn,Conditions,Clouds,dailyrainin,SoftwareType,DateUTC
2013-11-11 00:05:00,44.5,25.5,30.35,East,90,0.0,5.0,47,0.00,,,0.00,Wunderground v.1.15,2013-11-11 05:05:00,
2013-11-11 00:10:00,44.2,24.7,30.35,East,86,1.0,5.0,46,0.00,,,0.00,Wunderground v.1.15,2013-11-11 05:10:00,
2013-11-11 00:15:00,44.1,24.6,30.35,East,86,1.0,5.0,46,0.00,,,0.00,Wunderground v.1.15,2013-11-11 05:15:00,
2013-11-11 00:20:00,44.0,24.5,30.35,East,94,1.0,5.0,46,0.00,,,0.00,Wunderground v.1.15,2013-11-11 05:20:00,
2013-11-11 00:25:00,44.1,25.1,30.35,South,169,1.0,1.0,47,0.00,,,0.00,Wunderground v.1.15,2013-11-11 05:25:00,
2013-11-11 00:30:00,43.9,25.5,30.34,South,184,1.0,2.0,48,0.00,,,0.00,Wunderground v.1.15,2013-11-11 05:30:00,
2013-11-11 00:35:00,43.7,25.3,30.34,SSW,207,2.0,2.0,48,0.00,,,0.00,Wunderground v.1.15,2013-11-11 05:35:00,
2013-11-11 00:40:00,43.2,25.3,30.35,SSW,207,2.0,5.0,49,0.00,,,0.00,Wunderground v.1.15,2013-11-11 05:40:00,
2013-11-11 00:45:00,43.0,25.1,30.35,SSE,159,1.0,1.0,49,0.00,,,0.00,Wunderground v.1.15,2013-11-11 05:45:00,
2013-11-11 00:50:00,43.0,25.1,30.35,SSE,159,0.0,5.0,49,0.00,,,0.00,Wunderground v.1.15,2013-11-11 05:50:00,
2013-11-11 00:55:00,43.1,24.7,30.35,ESE,114,1.0,1.0,48,0.00,,,0.00,Wunderground v.1.15,2013-11-11 05:55:00,
2013-11-11 01:05:00,43.5,25.1,30.34,South,182,2.0,2.0,48,0.00,,,0.00,Wunderground v.1.15,2013-11-11 06:05:00,
2013-11-11 01:10:00,43.3,25.4,30.34,SSW,207,2.0,3.0,49,0.00,,,0.00,Wunderground v.1.15,2013-11-11 06:10:00,
2013-11-11 01:15:00,43.1,25.2,30.35,North,355,1.0,5.0,49,0.00,,,0.00,Wunderground v.1.15,2013-11-11 06:15:00,
2013-11-11 01:20:00,42.9,25.0,30.35,South,172,1.0,5.0,49,0.00,,,0.00,Wunderground v.1.15,2013-11-11 06:20:00,
2013-11-11 01:25:00,42.9,24.5,30.34,South,182,1.0,5.0,48,0.00,,,0.00,Wunderground v.1.15,2013-11-11 06:25:00,
2013-11-11 01:30:00,43.0,25.1,30.34,SSW,194,2.0,5.0,49,0.00,,,0.00,Wunderground v.1.15,2013-11-11 06:30:00,
2013-11-11 01:35:00,42.5,25.1,30.35,SSW,194,2.0,2.0,50,0.00,,,0.00,Wunderground v.1.15,2013-11-11 06:35:00,
2013-11-11 01:40:00,42.2,25.3,30.34,South,190,1.0,5.0,51,0.00,,,0.00,Wunderground v.1.15,2013-11-11 06:40:00,
2013-11-11 01:45:00,42.4,25.1,30.34,SW,225,2.0,5.0,50,0.00,,,0.00,Wunderground v.1.15,2013-11-11 06:45:00,
2013-11-11 01:50:00,42.8,24.9,30.33,South,191,3.0,5.0,49,0.00,,,0.00,Wunderground v.1.15,2013-11-11 06:50:00,
2013-11-11 01:55:00,42.9,25.0,30.33,South,177,3.0,5.0,49,0.00,,,0.00,Wunderground v.1.15,2013-11-11 06:55:00,
2013-11-11 02:05:00,43.1,24.7,30.34,SSW,193,3.0,3.0,48,0.00,,,0.00,Wunderground v.1.15,2013-11-11 07:05:00,
2013-11-11 02:10:00,43.2,24.8,30.34,South,185,2.0,5.0,48,0.00,,,0.00,Wunderground v.1.15,2013-11-11 07:10:00,
2013-11-11 02:15:00,43.2,24.8,30.34,South,184,3.0,5.0,48,0.00,,,0.00,Wunderground v.1.15,2013-11-11 07:15:00,
2013-11-11 02:20:00,43.3,24.4,30.34,South,180,3.0,5.0,47,0.00,,,0.00,Wunderground v.1.15,2013-11-11 07:20:00,
2013-11-11 02:25:00,43.3,24.4,30.34,SSW,202,4.0,6.0,47,0.00,,,0.00,Wunderground v.1.15,2013-11-11 07:25:00,
2013-11-11 02:30:00,43.3,24.4,30.34,ESE,117,4.0,6.0,47,0.00,,,0.00,Wunderground v.1.15,2013-11-11 07:30:00,
2013-11-11 02:35:00,43.3,24.4,30.34,South,174,3.0,3.0,47,0.00,,,0.00,Wunderground v.1.15,2013-11-11 07:35:00,
2013-11-11 02:40:00,43.3,24.4,30.34,South,178,2.0,4.0,47,0.00,,,0.00,Wunderground v.1.15,2013-11-11 07:40:00,
2013-11-11 02:45:00,43.2,24.3,30.34,SSE,163,2.0,5.0,47,0.00,,,0.00,Wunderground v.1.15,2013-11-11 07:45:00,
2013-11-11 02:50:00,43.1,24.7,30.34,ESE,108,2.0,5.0,48,0.00,,,0.00,Wunderground v.1.15,2013-11-11 07:50:00,
2013-11-11 02:55:00,42.9,24.5,30.34,SSE,153,2.0,5.0,48,0.00,,,0.00,Wunderground v.1.15,2013-11-11 07:55:00,
2013-11-11 03:05:00,42.8,24.4,30.34,SE,145,3.0,5.0,48,0.00,,,0.00,Wunderground v.1.15,2013-11-11 08:05:00,
2013-11-11 03:10:00,42.8,24.4,30.34,South,172,3.0,5.0,48,0.00,,,0.00,Wunderground v.1.15,2013-11-11 08:10:00,
2013-11-11 03:15:00,42.8,24.4,30.33,SSE,163,4.0,4.0,48,0.00,,,0.00,Wunderground v.1.15,2013-11-11 08:15:00,
2013-11-11 03:20:00,42.7,24.4,30.34,South,178,3.0,5.0,48,0.00,,,0.00,Wunderground v.1.15,2013-11-11 08:20:00,
2013-11-11 03:25:00,42.6,24.3,30.33,SSE,159,3.0,5.0,48,0.00,,,0.00,Wunderground v.1.15,2013-11-11 08:25:00,
2013-11-11 03:30:00,42.5,24.2,30.34,SSW,192,3.0,5.0,48,0.00,,,0.00,Wunderground v.1.15,2013-11-11 08:30:00,
2013-11-11 03:40:00,42.5,24.2,30.34,SSW,200,4.0,6.0,48,0.00,,,0.00,Wunderground v.1.15,2013-11-11 08:40:00,
2013-11-11 03:45:00,42.5,24.2,30.34,SSE,154,4.0,4.0,48,0.00,,,0.00,Wunderground v.1.15,2013-11-11 08:45:00,
2013-11-11 03:55:00,42.5,24.2,30.34,South,188,3.0,5.0,48,0.00,,,0.00,Wunderground v.1.15,2013-11-11 08:55:00,
2013-11-11 04:05:00,42.2,24.4,30.34,SSE,150,2.0,5.0,49,0.00,,,0.00,Wunderground v.1.15,2013-11-11 09:05:00,
2013-11-11 04:10:00,42.1,24.8,30.34,SSE,160,1.0,5.0,50,0.00,,,0.00,Wunderground v.1.15,2013-11-11 09:10:00,
2013-11-11 04:15:00,41.9,25.1,30.34,ESE,123,1.0,1.0,51,0.00,,,0.00,Wunderground v.1.15,2013-11-11 09:15:00,
2013-11-11 04:20:00,41.6,24.3,30.34,ESE,123,0.0,3.0,50,0.00,,,0.00,Wunderground v.1.15,2013-11-11 09:20:00,
2013-11-11 04:25:00,41.7,24.9,30.34,SSW,198,1.0,1.0,51,0.00,,,0.00,Wunderground v.1.15,2013-11-11 09:25:00,
2013-11-11 04:30:00,41.6,24.8,30.34,SW,218,1.0,5.0,51,0.00,,,0.00,Wunderground v.1.15,2013-11-11 09:30:00,
2013-11-11 04:35:00,41.5,25.2,30.35,SSE,156,0.0,5.0,52,0.00,,,0.00,Wunderground v.1.15,2013-11-11 09:35:00,
2013-11-11 04:40:00,41.1,24.3,30.35,SSE,156,0.0,5.0,51,0.00,,,0.00,Wunderground v.1.15,2013-11-11 09:40:00,
2013-11-11 04:45:00,40.9,24.6,30.35,SSE,159,0.0,5.0,52,0.00,,,0.00,Wunderground v.1.15,2013-11-11 09:45:00,
2013-11-11 04:55:00,40.4,25.1,30.35,SSE,159,0.0,5.0,54,0.00,,,0.00,Wunderground v.1.15,2013-11-11 09:55:00,
2013-11-11 05:05:00,39.8,24.5,30.35,SSE,159,0.0,5.0,54,0.00,,,0.00,Wunderground v.1.15,2013-11-11 10:05:00,
2013-11-11 05:10:00,39.6,24.7,30.35,SSE,159,0.0,5.0,55,0.00,,,0.00,Wunderground v.1.15,2013-11-11 10:10:00,
2013-11-11 05:15:00,39.3,24.5,30.36,SSE,159,0.0,5.0,55,0.00,,,0.00,Wunderground v.1.15,2013-11-11 10:15:00,
2013-11-11 05:20:00,39.1,24.7,30.36,SSE,159,0.0,5.0,56,0.00,,,0.00,Wunderground v.1.15,2013-11-11 10:20:00,
2013-11-11 05:25:00,39.0,25.0,30.36,SSE,159,0.0,5.0,57,0.00,,,0.00,Wunderground v.1.15,2013-11-11 10:25:00,
2013-11-11 05:30:00,38.9,24.9,30.36,SSE,159,0.0,5.0,57,0.00,,,0.00,Wunderground v.1.15,2013-11-11 10:30:00,
2013-11-11 05:35:00,38.9,24.9,30.36,SSE,159,0.0,5.0,57,0.00,,,0.00,Wunderground v.1.15,2013-11-11 10:35:00,
2013-11-11 05:40:00,38.9,24.9,30.36,SSE,159,0.0,5.0,57,0.00,,,0.00,Wunderground v.1.15,2013-11-11 10:40:00,
2013-11-11 05:50:00,38.8,25.3,30.36,SSE,159,0.0,5.0,58,0.00,,,0.00,Wunderground v.1.15,2013-11-11 10:50:00,
2013-11-11 05:55:00,38.9,25.4,30.36,SSE,159,0.0,5.0,58,0.00,,,0.00,Wunderground v.1.15,2013-11-11 10:55:00,
2013-11-11 06:05:00,38.9,24.9,30.36,SSE,159,0.0,5.0,57,0.00,,,0.00,Wunderground v.1.15,2013-11-11 11:05:00,
2013-11-11 06:10:00,38.8,24.9,30.37,SSE,159,0.0,5.0,57,0.00,,,0.00,Wunderground v.1.15,2013-11-11 11:10:00,
2013-11-11 06:15:00,38.8,24.9,30.37,SSE,159,0.0,5.0,57,0.00,,,0.00,Wunderground v.1.15,2013-11-11 11:15:00,
2013-11-11 06:20:00,38.7,24.8,30.37,SSE,159,0.0,5.0,57,0.00,,,0.00,Wunderground v.1.15,2013-11-11 11:20:00,
2013-11-11 06:25:00,38.6,24.7,30.37,SSE,159,0.0,5.0,57,0.00,,,0.00,Wunderground v.1.15,2013-11-11 11:25:00,
2013-11-11 06:30:00,38.7,25.2,30.37,SSE,159,0.0,5.0,58,0.00,,,0.00,Wunderground v.1.15,2013-11-11 11:30:00,
2013-11-11 06:35:00,38.7,24.8,30.37,SSE,159,0.0,5.0,57,0.00,,,0.00,Wunderground v.1.15,2013-11-11 11:35:00,
2013-11-11 06:40:00,38.8,25.3,30.37,SSE,159,0.0,5.0,58,0.00,,,0.00,Wunderground v.1.15,2013-11-11 11:40:00,
2013-11-11 06:45:00,38.7,24.8,30.37,SSE,159,0.0,5.0,57,0.00,,,0.00,Wunderground v.1.15,2013-11-11 11:45:00,
2013-11-11 06:50:00,38.6,25.1,30.37,SSE,159,0.0,5.0,58,0.00,,,0.00,Wunderground v.1.15,2013-11-11 11:50:00,
2013-11-11 06:55:00,38.5,25.0,30.37,SSE,159,0.0,5.0,58,0.00,,,0.00,Wunderground v.1.15,2013-11-11 11:55:00,
2013-11-11 07:05:00,38.0,24.9,30.38,SSE,159,0.0,5.0,59,0.00,,,0.00,Wunderground v.1.15,2013-11-11 12:05:00,
2013-11-11 07:10:00,37.8,24.7,30.38,SSE,159,0.0,5.0,59,0.00,,,0.00,Wunderground v.1.15,2013-11-11 12:10:00,
2013-11-11 07:15:00,37.6,25.0,30.39,SSE,159,0.0,5.0,60,0.00,,,0.00,Wunderground v.1.15,2013-11-11 12:15:00,
2013-11-11 07:20:00,37.5,24.9,30.39,SSE,159,0.0,5.0,60,0.00,,,0.00,Wunderground v.1.15,2013-11-11 12:20:00,
2013-11-11 07:25:00,37.4,24.8,30.39,SSE,159,0.0,5.0,60,0.00,,,0.00,Wunderground v.1.15,2013-11-11 12:25:00,
2013-11-11 07:30:00,37.4,24.8,30.39,SSE,159,0.0,5.0,60,0.00,,,0.00,Wunderground v.1.15,2013-11-11 12:30:00,
2013-11-11 07:35:00,37.3,25.1,30.39,SSE,159,0.0,5.0,61,0.00,,,0.00,Wunderground v.1.15,2013-11-11 12:35:00,
2013-11-11 07:40:00,37.3,25.8,30.39,SSE,159,0.0,5.0,63,0.00,,,0.00,Wunderground v.1.15,2013-11-11 12:40:00,
2013-11-11 07:45:00,37.3,25.1,30.39,SSE,159,0.0,5.0,61,0.00,,,0.00,Wunderground v.1.15,2013-11-11 12:45:00,
2013-11-11 07:50:00,37.5,24.9,30.39,SSE,159,0.0,5.0,60,0.00,,,0.00,Wunderground v.1.15,2013-11-11 12:50:00,
2013-11-11 07:55:00,37.7,24.6,30.40,SSE,159,0.0,5.0,59,0.00,,,0.00,Wunderground v.1.15,2013-11-11 12:55:00,
2013-11-11 08:05:00,37.9,24.4,30.40,SSE,159,0.0,5.0,58,0.00,,,0.00,Wunderground v.1.15,2013-11-11 13:05:00,
2013-11-11 08:10:00,38.1,24.6,30.40,SSE,159,0.0,5.0,58,0.00,,,0.00,Wunderground v.1.15,2013-11-11 13:10:00,
2013-11-11 08:15:00,38.3,24.4,30.40,SSE,159,0.0,5.0,57,0.00,,,0.00,Wunderground v.1.15,2013-11-11 13:15:00,
2013-11-11 08:20:00,38.5,24.6,30.41,SSE,159,0.0,5.0,57,0.00,,,0.00,Wunderground v.1.15,2013-11-11 13:20:00,
2013-11-11 08:25:00,38.7,24.8,30.41,SSE,159,0.0,5.0,57,0.00,,,0.00,Wunderground v.1.15,2013-11-11 13:25:00,
2013-11-11 08:30:00,38.9,24.9,30.41,SSE,159,0.0,5.0,57,0.00,,,0.00,Wunderground v.1.15,2013-11-11 13:30:00,
2013-11-11 08:35:00,39.1,25.1,30.41,SSE,159,0.0,5.0,57,0.00,,,0.00,Wunderground v.1.15,2013-11-11 13:35:00,
2013-11-11 08:40:00,39.3,25.3,30.41,SSE,159,0.0,5.0,57,0.00,,,0.00,Wunderground v.1.15,2013-11-11 13:40:00,
2013-11-11 08:45:00,39.7,25.7,30.42,SSE,159,0.0,5.0,57,0.00,,,0.00,Wunderground v.1.15,2013-11-11 13:45:00,
2013-11-11 08:50:00,40.2,25.3,30.42,SSE,159,0.0,5.0,55,0.00,,,0.00,Wunderground v.1.15,2013-11-11 13:50:00,
2013-11-11 08:55:00,41.0,26.5,30.42,SSE,159,0.0,5.0,56,0.00,,,0.00,Wunderground v.1.15,2013-11-11 13:55:00,
2013-11-11 09:05:00,42.5,27.0,30.42,SSE,159,0.0,5.0,54,0.00,,,0.00,Wunderground v.1.15,2013-11-11 14:05:00,
2013-11-11 09:10:00,43.0,26.6,30.42,SSE,154,1.0,5.0,52,0.00,,,0.00,Wunderground v.1.15,2013-11-11 14:10:00,
2013-11-11 09:15:00,43.3,26.8,30.42,South,169,1.0,1.0,52,0.00,,,0.00,Wunderground v.1.15,2013-11-11 14:15:00,
2013-11-11 09:20:00,43.6,27.1,30.42,South,171,1.0,5.0,52,0.00,,,0.00,Wunderground v.1.15,2013-11-11 14:20:00,
2013-11-11 09:25:00,44.2,27.7,30.42,South,171,1.0,1.0,52,0.00,,,0.00,Wunderground v.1.15,2013-11-11 14:25:00,
2013-11-11 09:30:00,44.9,27.4,30.42,South,182,1.0,5.0,50,0.00,,,0.00,Wunderground v.1.15,2013-11-11 14:30:00,
2013-11-11 09:35:00,45.2,26.1,30.42,SE,129,1.0,5.0,47,0.00,,,0.00,Wunderground v.1.15,2013-11-11 14:35:00,
2013-11-11 09:40:00,45.5,26.4,30.41,South,190,1.0,5.0,47,0.00,,,0.00,Wunderground v.1.15,2013-11-11 14:40:00,
2013-11-11 09:45:00,45.7,27.1,30.42,SSW,202,1.0,5.0,48,0.00,,,0.00,Wunderground v.1.15,2013-11-11 14:45:00,
2013-11-11 09:55:00,45.4,26.3,30.42,NE,43,2.0,2.0,47,0.00,,,0.00,Wunderground v.1.15,2013-11-11 14:55:00,
2013-11-11 10:05:00,45.3,26.7,30.42,SSE,163,2.0,2.0,48,0.00,,,0.00,Wunderground v.1.15,2013-11-11 15:05:00,
2013-11-11 10:10:00,45.6,27.0,30.42,SSW,199,2.0,5.0,48,0.00,,,0.00,Wunderground v.1.15,2013-11-11 15:10:00,
2013-11-11 10:15:00,45.7,27.6,30.42,WSW,238,2.0,2.0,49,0.00,,,0.00,Wunderground v.1.15,2013-11-11 15:15:00,
2013-11-11 10:20:00,46.5,27.8,30.42,SE,137,1.0,5.0,48,0.00,,,0.00,Wunderground v.1.15,2013-11-11 15:20:00,
2013-11-11 10:25:00,46.9,27.7,30.42,SE,138,1.0,5.0,47,0.00,,,0.00,Wunderground v.1.15,2013-11-11 15:25:00,
2013-11-11 10:30:00,47.4,27.6,30.42,NW,314,1.0,5.0,46,0.00,,,0.00,Wunderground v.1.15,2013-11-11 15:30:00,
2013-11-11 10:35:00,48.3,28.5,30.42,West,273,1.0,5.0,46,0.00,,,0.00,Wunderground v.1.15,2013-11-11 15:35:00,
2013-11-11 10:40:00,49.1,28.7,30.42,WSW,257,1.0,5.0,45,0.00,,,0.00,Wunderground v.1.15,2013-11-11 15:40:00,
2013-11-11 10:45:00,49.5,28.5,30.42,South,189,1.0,5.0,44,0.00,,,0.00,Wunderground v.1.15,2013-11-11 15:45:00,
2013-11-11 10:50:00,49.8,28.7,30.41,SW,228,1.0,5.0,44,0.00,,,0.00,Wunderground v.1.15,2013-11-11 15:50:00,
2013-11-11 10:55:00,50.0,27.8,30.41,SW,220,1.0,5.0,42,0.00,,,0.00,Wunderground v.1.15,2013-11-11 15:55:00,
2013-11-11 11:05:00,50.3,28.6,30.40,South,169,2.0,2.0,43,0.00,,,0.00,Wunderground v.1.15,2013-11-11 16:05:00,
2013-11-11 11:10:00,50.7,29.0,30.40,SSW,201,2.0,5.0,43,0.00,,,0.00,Wunderground v.1.15,2013-11-11 16:10:00,
2013-11-11 11:20:00,52.1,29.1,30.40,South,184,1.0,5.0,41,0.00,,,0.00,Wunderground v.1.15,2013-11-11 16:20:00,
2013-11-11 11:25:00,52.8,29.1,30.39,ENE,57,1.0,5.0,40,0.00,,,0.00,Wunderground v.1.15,2013-11-11 16:25:00,
2013-11-11 11:30:00,52.3,28.7,30.39,SW,220,2.0,5.0,40,0.00,,,0.00,Wunderground v.1.15,2013-11-11 16:30:00,
2013-11-11 11:35:00,52.5,29.5,30.38,SSE,167,2.0,2.0,41,0.00,,,0.00,Wunderground v.1.15,2013-11-11 16:35:00,
2013-11-11 11:40:00,53.3,29.6,30.38,SSE,166,2.0,5.0,40,0.00,,,0.00,Wunderground v.1.15,2013-11-11 16:40:00,
2013-11-11 11:45:00,53.8,30.0,30.37,NNE,32,2.0,2.0,40,0.00,,,0.00,Wunderground v.1.15,2013-11-11 16:45:00,
2013-11-11 11:50:00,53.8,29.4,30.37,West,261,2.0,5.0,39,0.00,,,0.00,Wunderground v.1.15,2013-11-11 16:50:00,
2013-11-11 11:55:00,53.9,29.5,30.37,SSE,168,2.0,5.0,39,0.00,,,0.00,Wunderground v.1.15,2013-11-11 16:55:00,
2013-11-11 12:05:00,54.4,29.9,30.36,SW,223,1.0,1.0,39,0.00,,,0.00,Wunderground v.1.15,2013-11-11 17:05:00,
2013-11-11 12:10:00,54.9,29.7,30.36,SW,217,1.0,5.0,38,0.00,,,0.00,Wunderground v.1.15,2013-11-11 17:10:00,
2013-11-11 12:15:00,55.0,29.8,30.35,SSW,207,2.0,5.0,38,0.00,,,0.00,Wunderground v.1.15,2013-11-11 17:15:00,
2013-11-11 12:20:00,55.6,29.7,30.35,East,100,1.0,5.0,37,0.00,,,0.00,Wunderground v.1.15,2013-11-11 17:20:00,
2013-11-11 12:30:00,55.6,29.7,30.34,SW,236,1.0,5.0,37,0.00,,,0.00,Wunderground v.1.15,2013-11-11 17:30:00,
2013-11-11 12:35:00,55.7,29.8,30.34,WSW,251,2.0,5.0,37,0.00,,,0.00,Wunderground v.1.15,2013-11-11 17:35:00,
2013-11-11 12:40:00,56.0,30.1,30.34,SW,215,2.0,5.0,37,0.00,,,0.00,Wunderground v.1.15,2013-11-11 17:40:00,
2013-11-11 12:45:00,56.6,29.9,30.33,ESE,119,2.0,2.0,36,0.00,,,0.00,Wunderground v.1.15,2013-11-11 17:45:00,
2013-11-11 12:50:00,56.5,29.1,30.33,SSE,156,2.0,3.0,35,0.00,,,0.00,Wunderground v.1.15,2013-11-11 17:50:00,
2013-11-11 12:55:00,56.1,29.5,30.32,SW,218,3.0,3.0,36,0.00,,,0.00,Wunderground v.1.15,2013-11-11 17:55:00,
2013-11-11 13:05:00,57.0,29.6,30.32,South,174,2.0,5.0,35,0.00,,,0.00,Wunderground v.1.15,2013-11-11 18:05:00,
2013-11-11 13:10:00,56.6,29.9,30.31,SSW,200,2.0,5.0,36,0.00,,,0.00,Wunderground v.1.15,2013-11-11 18:10:00,
2013-11-11 13:15:00,57.2,29.8,30.31,South,178,1.0,5.0,35,0.00,,,0.00,Wunderground v.1.15,2013-11-11 18:15:00,
2013-11-11 13:25:00,57.6,30.1,30.30,SSW,209,2.0,5.0,35,0.00,,,0.00,Wunderground v.1.15,2013-11-11 18:25:00,
2013-11-11 13:30:00,57.7,30.2,30.30,WSW,240,2.0,5.0,35,0.00,,,0.00,Wunderground v.1.15,2013-11-11 18:30:00,
2013-11-11 13:35:00,57.6,30.1,30.30,SE,135,3.0,3.0,35,0.00,,,0.00,Wunderground v.1.15,2013-11-11 18:35:00,
2013-11-11 13:40:00,57.8,31.0,30.30,South,190,2.0,9.0,36,0.00,,,0.00,Wunderground v.1.15,2013-11-11 18:40:00,
2013-11-11 13:45:00,58.1,30.6,30.29,NNE,27,2.0,5.0,35,0.00,,,0.00,Wunderground v.1.15,2013-11-11 18:45:00,
2013-11-11 13:50:00,58.0,30.5,30.29,SSW,206,2.0,5.0,35,0.00,,,0.00,Wunderground v.1.15,2013-11-11 18:50:00,
2013-11-11 13:55:00,58.4,30.8,30.29,South,172,2.0,2.0,35,0.00,,,0.00,Wunderground v.1.15,2013-11-11 18:55:00,
2013-11-11 14:05:00,59.1,30.7,30.29,WSW,243,2.0,5.0,34,0.00,,,0.00,Wunderground v.1.15,2013-11-11 19:05:00,
2013-11-11 14:10:00,59.0,30.6,30.29,NE,56,2.0,5.0,34,0.00,,,0.00,Wunderground v.1.15,2013-11-11 19:10:00,
2013-11-11 14:20:00,59.1,30.7,30.29,SSW,193,2.0,5.0,34,0.00,,,0.00,Wunderground v.1.15,2013-11-11 19:20:00,
2013-11-11 14:25:00,58.8,31.2,30.29,SSW,195,1.0,5.0,35,0.00,,,0.00,Wunderground v.1.15,2013-11-11 19:25:00,
2013-11-11 14:30:00,58.9,30.6,30.29,South,171,1.0,5.0,34,0.00,,,0.00,Wunderground v.1.15,2013-11-11 19:30:00,
2013-11-11 14:35:00,59.0,31.4,30.29,SSE,165,2.0,5.0,35,0.00,,,0.00,Wunderground v.1.15,2013-11-11 19:35:00,
2013-11-11 14:40:00,58.8,30.5,30.29,West,271,2.0,5.0,34,0.00,,,0.00,Wunderground v.1.15,2013-11-11 19:40:00,
2013-11-11 14:45:00,58.8,30.5,30.28,NW,320,2.0,2.0,34,0.00,,,0.00,Wunderground v.1.15,2013-11-11 19:45:00,
2013-11-11 14:50:00,59.0,30.6,30.28,South,190,2.0,5.0,34,0.00,,,0.00,Wunderground v.1.15,2013-11-11 19:50:00,
2013-11-11 14:55:00,58.9,30.6,30.28,SSW,212,2.0,2.0,34,0.00,,,0.00,Wunderground v.1.15,2013-11-11 19:55:00,
2013-11-11 15:05:00,58.9,31.3,30.28,WNW,288,2.0,5.0,35,0.00,,,0.00,Wunderground v.1.15,2013-11-11 20:05:00,
2013-11-11 15:10:00,59.0,30.6,30.28,ESE,103,2.0,5.0,34,0.00,,,0.00,Wunderground v.1.15,2013-11-11 20:10:00,
2013-11-11 15:15:00,58.9,30.6,30.27,NE,37,1.0,5.0,34,0.00,,,0.00,Wunderground v.1.15,2013-11-11 20:15:00,
2013-11-11 15:25:00,58.5,30.9,30.27,SSE,150,2.0,2.0,35,0.00,,,0.00,Wunderground v.1.15,2013-11-11 20:25:00,
2013-11-11 15:30:00,58.6,31.0,30.27,SSE,158,2.0,5.0,35,0.00,,,0.00,Wunderground v.1.15,2013-11-11 20:30:00,
2013-11-11 15:40:00,58.5,30.9,30.27,SSE,167,1.0,5.0,35,0.00,,,0.00,Wunderground v.1.15,2013-11-11 20:40:00,
2013-11-11 15:45:00,58.6,31.0,30.27,WSW,245,1.0,5.0,35,0.00,,,0.00,Wunderground v.1.15,2013-11-11 20:45:00,
2013-11-11 15:55:00,58.4,30.8,30.27,SW,221,2.0,2.0,35,0.00,,,0.00,Wunderground v.1.15,2013-11-11 20:55:00,
2013-11-11 16:05:00,58.0,30.5,30.28,ESE,110,2.0,5.0,35,0.00,,,0.00,Wunderground v.1.15,2013-11-11 21:05:00,
2013-11-11 16:10:00,57.9,30.4,30.28,SSE,165,2.0,5.0,35,0.00,,,0.00,Wunderground v.1.15,2013-11-11 21:10:00,
2013-11-11 16:15:00,57.8,31.0,30.28,SSW,207,1.0,5.0,36,0.00,,,0.00,Wunderground v.1.15,2013-11-11 21:15:00,
2013-11-11 16:20:00,57.8,31.0,30.28,SW,218,1.0,5.0,36,0.00,,,0.00,Wunderground v.1.15,2013-11-11 21:20:00,
2013-11-11 16:25:00,57.7,30.2,30.28,SSE,161,1.0,5.0,35,0.00,,,0.00,Wunderground v.1.15,2013-11-11 21:25:00,
2013-11-11 16:30:00,57.4,30.6,30.28,South,179,1.0,5.0,36,0.00,,,0.00,Wunderground v.1.15,2013-11-11 21:30:00,
2013-11-11 16:40:00,57.0,30.3,30.28,East,92,1.0,5.0,36,0.00,,,0.00,Wunderground v.1.15,2013-11-11 21:40:00,
2013-11-11 16:45:00,56.7,30.0,30.28,South,184,1.0,1.0,36,0.00,,,0.00,Wunderground v.1.15,2013-11-11 21:45:00,
2013-11-11 16:55:00,56.0,30.1,30.28,NNW,336,1.0,5.0,37,0.00,,,0.00,Wunderground v.1.15,2013-11-11 21:55:00,
2013-11-11 17:05:00,55.5,30.3,30.28,West,259,0.0,5.0,38,0.00,,,0.00,Wunderground v.1.15,2013-11-11 22:05:00,
2013-11-11 17:10:00,55.1,29.9,30.28,ENE,63,0.0,5.0,38,0.00,,,0.00,Wunderground v.1.15,2013-11-11 22:10:00,
2013-11-11 17:15:00,54.8,30.3,30.28,ENE,73,0.0,5.0,39,0.00,,,0.00,Wunderground v.1.15,2013-11-11 22:15:00,
2013-11-11 17:20:00,54.3,29.8,30.28,NE,56,1.0,5.0,39,0.00,,,0.00,Wunderground v.1.15,2013-11-11 22:20:00,
2013-11-11 17:25:00,53.8,30.0,30.28,East,90,0.0,5.0,40,0.00,,,0.00,Wunderground v.1.15,2013-11-11 22:25:00,
2013-11-11 17:30:00,53.4,30.3,30.28,East,84,0.0,5.0,41,0.00,,,0.00,Wunderground v.1.15,2013-11-11 22:30:00,
2013-11-11 17:35:00,53.1,30.6,30.28,ENE,78,0.0,5.0,42,0.00,,,0.00,Wunderground v.1.15,2013-11-11 22:35:00,
2013-11-11 17:40:00,52.8,29.7,30.28,East,80,0.0,5.0,41,0.00,,,0.00,Wunderground v.1.15,2013-11-11 22:40:00,
2013-11-11 17:45:00,52.5,30.0,30.28,SE,130,0.0,5.0,42,0.00,,,0.00,Wunderground v.1.15,2013-11-11 22:45:00,
2013-11-11 17:50:00,52.3,29.9,30.28,South,171,0.0,5.0,42,0.00,,,0.00,Wunderground v.1.15,2013-11-11 22:50:00,
2013-11-11 17:55:00,52.1,30.3,30.29,SSE,153,1.0,1.0,43,0.00,,,0.00,Wunderground v.1.15,2013-11-11 22:55:00,
2013-11-11 18:05:00,52.1,30.3,30.28,SSW,201,1.0,5.0,43,0.00,,,0.00,Wunderground v.1.15,2013-11-11 23:05:00,
2013-11-11 18:10:00,52.1,30.3,30.29,South,170,2.0,5.0,43,0.00,,,0.00,Wunderground v.1.15,2013-11-11 23:10:00,
2013-11-11 18:15:00,52.0,30.7,30.29,South,169,1.0,5.0,44,0.00,,,0.00,Wunderground v.1.15,2013-11-11 23:15:00,
2013-11-11 18:20:00,52.0,30.7,30.29,South,173,1.0,5.0,44,0.00,,,0.00,Wunderground v.1.15,2013-11-11 23:20:00,
2013-11-11 18:25:00,51.8,31.1,30.29,SSE,149,1.0,1.0,45,0.00,,,0.00,Wunderground v.1.15,2013-11-11 23:25:00,
2013-11-11 18:30:00,51.6,30.9,30.29,SSE,164,1.0,5.0,45,0.00,,,0.00,Wunderground v.1.15,2013-11-11 23:30:00,
2013-11-11 18:35:00,51.5,30.8,30.29,SSE,166,1.0,5.0,45,0.00,,,0.00,Wunderground v.1.15,2013-11-11 23:35:00,
2013-11-11 18:40:00,51.3,31.2,30.29,SSE,147,1.0,5.0,46,0.00,,,0.00,Wunderground v.1.15,2013-11-11 23:40:00,
2013-11-11 18:45:00,51.2,31.1,30.29,South,191,1.0,5.0,46,0.00,,,0.00,Wunderground v.1.15,2013-11-11 23:45:00,
2013-11-11 18:50:00,51.1,31.0,30.29,South,180,1.0,5.0,46,0.00,,,0.00,Wunderground v.1.15,2013-11-11 23:50:00,
2013-11-11 18:55:00,50.9,31.4,30.29,South,175,2.0,5.0,47,0.00,,,0.00,Wunderground v.1.15,2013-11-11 23:55:00,
2013-11-11 19:05:00,50.6,31.1,30.29,South,171,1.0,5.0,47,0.00,,,0.00,Wunderground v.1.15,2013-11-12 00:05:00,
2013-11-11 19:10:00,50.4,31.4,30.28,South,176,1.0,5.0,48,0.00,,,0.00,Wunderground v.1.15,2013-11-12 00:10:00,
2013-11-11 19:15:00,50.2,31.2,30.29,SSE,164,1.0,1.0,48,0.00,,,0.00,Wunderground v.1.15,2013-11-12 00:15:00,
2013-11-11 19:20:00,50.0,31.1,30.29,SSE,161,0.0,5.0,48,0.00,,,0.00,Wunderground v.1.15,2013-11-12 00:20:00,
2013-11-11 19:25:00,49.9,31.5,30.29,South,183,0.0,5.0,49,0.00,,,0.00,Wunderground v.1.15,2013-11-12 00:25:00,
2013-11-11 19:35:00,49.5,31.6,30.28,South,183,0.0,5.0,50,0.00,,,0.00,Wunderground v.1.15,2013-11-12 00:35:00,
2013-11-11 19:40:00,49.3,31.4,30.28,South,183,0.0,5.0,50,0.00,,,0.00,Wunderground v.1.15,2013-11-12 00:40:00,
2013-11-11 19:45:00,49.2,31.8,30.28,SSW,197,0.0,5.0,51,0.00,,,0.00,Wunderground v.1.15,2013-11-12 00:45:00,
2013-11-11 19:50:00,49.1,31.7,30.28,SSE,164,0.0,5.0,51,0.00,,,0.00,Wunderground v.1.15,2013-11-12 00:50:00,
2013-11-11 19:55:00,49.0,31.6,30.28,SSE,154,0.0,5.0,51,0.00,,,0.00,Wunderground v.1.15,2013-11-12 00:55:00,
2013-11-11 20:05:00,48.7,31.8,30.28,SSE,154,0.0,5.0,52,0.00,,,0.00,Wunderground v.1.15,2013-11-12 01:05:00,
2013-11-11 20:10:00,48.6,31.8,30.28,SSE,154,0.0,5.0,52,0.00,,,0.00,Wunderground v.1.15,2013-11-12 01:10:00,
2013-11-11 20:15:00,48.4,31.6,30.28,SSE,154,0.0,5.0,52,0.00,,,0.00,Wunderground v.1.15,2013-11-12 01:15:00,
2013-11-11 20:20:00,48.3,31.9,30.28,SE,146,0.0,5.0,53,0.00,,,0.00,Wunderground v.1.15,2013-11-12 01:20:00,
2013-11-11 20:25:00,48.2,31.9,30.28,SE,146,0.0,5.0,53,0.00,,,0.00,Wunderground v.1.15,2013-11-12 01:25:00,
2013-11-11 20:30:00,48.1,31.8,30.28,SSE,157,0.0,5.0,53,0.00,,,0.00,Wunderground v.1.15,2013-11-12 01:30:00,
2013-11-11 20:35:00,48.0,31.7,30.28,SSE,153,0.0,5.0,53,0.00,,,0.00,Wunderground v.1.15,2013-11-12 01:35:00,
2013-11-11 20:40:00,47.9,31.6,30.28,SSE,150,0.0,5.0,53,0.00,,,0.00,Wunderground v.1.15,2013-11-12 01:40:00,
2013-11-11 20:45:00,47.9,32.0,30.28,SSE,150,0.0,5.0,54,0.00,,,0.00,Wunderground v.1.15,2013-11-12 01:45:00,
2013-11-11 20:50:00,47.8,31.9,30.28,SSE,150,0.0,5.0,54,0.00,,,0.00,Wunderground v.1.15,2013-11-12 01:50:00,
2013-11-11 20:55:00,47.8,31.9,30.28,SSE,150,0.0,5.0,54,0.00,,,0.00,Wunderground v.1.15,2013-11-12 01:55:00,
2013-11-11 21:05:00,47.9,32.0,30.28,SE,142,0.0,5.0,54,0.00,,,0.00,Wunderground v.1.15,2013-11-12 02:05:00,
2013-11-11 21:10:00,47.8,31.9,30.28,SE,142,0.0,5.0,54,0.00,,,0.00,Wunderground v.1.15,2013-11-12 02:10:00,
2013-11-11 21:15:00,47.8,31.9,30.28,SE,142,0.0,5.0,54,0.00,,,0.00,Wunderground v.1.15,2013-11-12 02:15:00,
2013-11-11 21:20:00,47.7,31.9,30.28,SE,142,0.0,5.0,54,0.00,,,0.00,Wunderground v.1.15,2013-11-12 02:20:00,
2013-11-11 21:30:00,47.5,32.1,30.28,SE,142,0.0,5.0,55,0.00,,,0.00,Wunderground v.1.15,2013-11-12 02:30:00,
2013-11-11 21:35:00,47.4,32.0,30.28,SE,142,0.0,5.0,55,0.00,,,0.00,Wunderground v.1.15,2013-11-12 02:35:00,
2013-11-11 21:40:00,47.3,31.9,30.28,SE,142,0.0,5.0,55,0.00,,,0.00,Wunderground v.1.15,2013-11-12 02:40:00,
2013-11-11 21:45:00,47.2,31.8,30.28,SE,142,0.0,5.0,55,0.00,,,0.00,Wunderground v.1.15,2013-11-12 02:45:00,
2013-11-11 21:50:00,47.0,31.7,30.28,SE,142,0.0,5.0,55,0.00,,,0.00,Wunderground v.1.15,2013-11-12 02:50:00,
2013-11-11 22:05:00,47.0,32.1,30.28,SE,142,0.0,5.0,56,0.00,,,0.00,Wunderground v.1.15,2013-11-12 03:05:00,
2013-11-11 22:10:00,47.0,31.7,30.28,SE,142,0.0,5.0,55,0.00,,,0.00,Wunderground v.1.15,2013-11-12 03:10:00,
2013-11-11 22:15:00,47.0,32.1,30.28,SE,142,0.0,5.0,56,0.00,,,0.00,Wunderground v.1.15,2013-11-12 03:15:00,
2013-11-11 22:20:00,46.9,32.0,30.28,SE,142,0.0,5.0,56,0.00,,,0.00,Wunderground v.1.15,2013-11-12 03:20:00,
2013-11-11 22:25:00,46.9,32.0,30.28,SE,142,0.0,5.0,56,0.00,,,0.00,Wunderground v.1.15,2013-11-12 03:25:00,
2013-11-11 22:30:00,46.8,31.9,30.28,SE,142,0.0,5.0,56,0.00,,,0.00,Wunderground v.1.15,2013-11-12 03:30:00,
2013-11-11 22:35:00,46.8,31.9,30.28,SE,142,0.0,5.0,56,0.00,,,0.00,Wunderground v.1.15,2013-11-12 03:35:00,
2013-11-11 22:40:00,46.9,31.6,30.28,SE,142,0.0,5.0,55,0.00,,,0.00,Wunderground v.1.15,2013-11-12 03:40:00,
2013-11-11 22:45:00,47.2,31.4,30.28,SE,142,0.0,5.0,54,0.00,,,0.00,Wunderground v.1.15,2013-11-12 03:45:00,
2013-11-11 22:55:00,47.5,31.2,30.27,SE,142,0.0,5.0,53,0.00,,,0.00,Wunderground v.1.15,2013-11-12 03:55:00,
2013-11-11 23:10:00,47.3,31.5,30.27,SE,142,0.0,5.0,54,0.00,,,0.00,Wunderground v.1.15,2013-11-12 04:10:00,
2013-11-11 23:15:00,47.2,31.4,30.26,SE,142,0.0,5.0,54,0.00,,,0.00,Wunderground v.1.15,2013-11-12 04:15:00,
2013-11-11 23:20:00,47.1,31.3,30.26,SE,142,0.0,5.0,54,0.00,,,0.00,Wunderground v.1.15,2013-11-12 04:20:00,
2013-11-11 23:25:00,47.0,31.7,30.26,SE,142,0.0,5.0,55,0.00,,,0.00,Wunderground v.1.15,2013-11-12 04:25:00,
2013-11-11 23:30:00,46.9,32.0,30.26,SE,142,0.0,5.0,56,0.00,,,0.00,Wunderground v.1.15,2013-11-12 04:30:00,
2013-11-11 23:35:00,46.9,31.6,30.26,SE,142,0.0,5.0,55,0.00,,,0.00,Wunderground v.1.15,2013-11-12 04:35:00,
2013-11-11 23:40:00,47.0,31.7,30.26,SE,142,0.0,5.0,55,0.00,,,0.00,Wunderground v.1.15,2013-11-12 04:40:00,
2013-11-11 23:45:00,47.2,31.4,30.26,SE,142,0.0,5.0,54,0.00,,,0.00,Wunderground v.1.15,2013-11-12 04:45:00,
2013-11-11 23:55:00,47.3,31.9,30.26,SE,142,0.0,5.0,55,0.00,,,0.00,Wunderground v.1.15,2013-11-12 04:55:00,